Location: Molino di Ancona
(43.6167°N, 13.3667°E)
Time: 04:38:10
(UTC+00:00)

Cosmos 2279 Rocket - Pass Details

Date: 15 December 2019
Orbit: 965 x 978 km, 82.9° (Epoch: 18 January)

Event Time Altitude Azimuth Distance (km) Brightness Sun altitude
Rises 04:48:15 0° 200° (SSW) 3,643 7.0 -18.1°
Reaches altitude 10° 04:50:48 10° 205° (SSW) 2,702 6.2 -17.6°
Maximum altitude 04:56:50 54° 282° (WNW) 1,168 4.0 -16.6°
Drops below altitude 10° 05:02:57 10° 359° (N) 2,728 6.2 -15.5°
Sets 05:05:33 0° 4° (N) 3,682 6.9 -15.1°
